Regional Weather Roundup
Issued by NWS

Home | Current Version | Previous Version | Text Only | Print | Product List | Glossary Off
Versions: 1 2 3 4 5 6 7 8 9 10 11 12 13 14 15 16 17 18 19 20 21 22 23 24 25 26 27 28 29 30 31 32 33 34 35 36 37 38 39 40 41 42 43 44 45 46 47 48 49 50

000
ASUS44 KMEG 211710
RWRTN
TENNESSEE HOURLY STATE WEATHER ROUNDUP
NATIONAL WEATHER SERVICE MEMPHIS TN
1100 AM CST FRI NOV 21 2014

TNZ002-004-019-021-049-052-054-088>092-211800-
WEST TENNESSEE

CITY           SKY/WX    TMP DP  RH WIND       PRES   REMARKS
MEMPHIS INTL   CLOUDY    46  39  76 E8        30.34F
NWS MEMPHIS      N/A     46 N/A N/A MISG        N/A
JACKSON        CLOUDY    48  28  46 E10       30.39S
DYERSBURG      CLOUDY    46  21  36 E9        30.39F
UNION CITY     MOSUNNY   41  23  48 E9        30.38F
PARIS            N/A     41  21  45 E12       30.41F
HUNTINGDON     CLOUDY    44  20  38 SE8       30.41F
LEXINGTON      CLOUDY    46  25  42 E6        30.40F
SAVANNAH       CLOUDY    52  28  40 SE7       30.40S
$$

TNZ008-025-027-028-033-062-065-066-211800-
NORTH MIDDLE TENNESSEE

CITY           SKY/WX    TMP DP  RH WIND       PRES   REMARKS
NASHVILLE      MOSUNNY   45  22  40 E8        30.45F
CLARKSVILLE    SUNNY     42  22  44 SE9       30.45F
SMYRNA         SUNNY     47  23  38 NE5       30.46F
COOKEVILLE     SUNNY     45  23  42 CALM      30.43F
CROSSVILLE     SUNNY     44  11  26 CALM      30.43S
$$

TNZ061-075-076-078-094-096-097-211800-
SOUTH MIDDLE TENNESSEE

CITY           SKY/WX    TMP DP  RH WIND       PRES   REMARKS
FAYETTEVILLE   MOSUNNY   50  21  32 MISG      30.41F
TULLAHOMA      SUNNY     48  16  27 CALM      30.42F
WINCHESTER     SUNNY     52  21  30 CALM      30.42S
MCMINNVILLE    SUNNY     46  23  39 CALM      30.43S
COLUMBIA       PTSUNNY   46  27  46 CALM      30.41F
SHELBYVILLE    SUNNY     48  23  37 E7        30.44S
$$

TNZ017-018-042-046-047-211800-
NORTHEAST TENNESSEE

CITY           SKY/WX    TMP DP  RH WIND       PRES   REMARKS
TRI CITIES     SUNNY     38  18  44 CALM      30.45F
ELIZABETHTON   SUNNY     39  12  33 W7        30.44F WCI  34
$$

TNZ012-013-036-069-073-074-211800-
CENTRAL EAST TENNESSEE

CITY           SKY/WX    TMP DP  RH WIND       PRES   REMARKS
KNOXVILLE      MOSUNNY   45  18  34 N10       30.46F
OAK RIDGE      SUNNY     44  15  31 VRB5      30.48F
GATLINBURG     SUNNY     45  19  36 N3        30.46S
MORRISTOWN     SUNNY     43  19  39 CALM      30.46S
$$

TNZ083-085-099-211800-
SOUTHEAST TENNESSEE

CITY           SKY/WX    TMP DP  RH WIND       PRES   REMARKS
CHATTANOOGA    MOSUNNY   49  22  34 NE7       30.45F
$$

SKY/WX REPORTED AS FAIR MEANS FEW OR NO CLOUDS BELOW
12 THOUSAND FEET.




USA.gov is the U.S. government's official web portal to all federal, state and local government web resources and services.